VEG YRTI-YGIG

Flight info

Callsign VEG
Flight time 0h 16m
Altitude 3000
Route DCT
Aircraft TBM9/L-V/N

Departure

Time 2026-04-26 14:31
Airport Rottnest Island Airport (YRTI)

Arrival

Time 2026-04-26 14:47
Airport RAAF Gingin (YGIG)
Time Latitude Longitude Altitude Speed Heading
2026-04-26 14:21 -32.00531 115.54310 10 ft 0 kts 324°
2026-04-26 14:28 -32.00522 115.54282 10 ft 18 kts 262°
2026-04-26 14:28 -32.00578 115.54211 10 ft 0 kts 180°
2026-04-26 14:29 -32.00635 115.54179 13 ft 25 kts 259°
2026-04-26 14:30 -32.00625 115.53939 15 ft 42 kts 271°
2026-04-26 14:30 -32.00623 115.53432 17 ft 65 kts 272°
2026-04-26 14:30 -32.00623 115.53280 15 ft 19 kts 99°
2026-04-26 14:30 -32.00623 115.53736 13 ft 91 kts 92°
2026-04-26 14:31 -32.00631 115.54717 77 ft 141 kts 93°
2026-04-26 14:31 -32.00624 115.55928 471 ft 162 kts 92°
2026-04-26 14:31 -32.00560 115.57179 1364 ft 145 kts 82°
2026-04-26 14:31 -32.00125 115.58186 2221 ft 135 kts 50°
2026-04-26 14:32 -31.99391 115.58857 2884 ft 138 kts 26°
2026-04-26 14:32 -31.98426 115.59464 3004 ft 178 kts 30°
2026-04-26 14:32 -31.97264 115.60269 3016 ft 207 kts 30°
2026-04-26 14:32 -31.95986 115.61159 3011 ft 215 kts 30°
2026-04-26 14:33 -31.94682 115.62058 3011 ft 216 kts 30°
2026-04-26 14:33 -31.93400 115.62941 3007 ft 212 kts 30°
2026-04-26 14:33 -31.92134 115.63813 3007 ft 210 kts 30°
2026-04-26 14:33 -31.90875 115.64673 3002 ft 209 kts 30°
2026-04-26 14:34 -31.89621 115.65527 2992 ft 208 kts 30°
2026-04-26 14:34 -31.88371 115.66379 2988 ft 207 kts 30°
2026-04-26 14:34 -31.87121 115.67227 2990 ft 207 kts 30°
2026-04-26 14:34 -31.85876 115.68085 2986 ft 208 kts 31°
2026-04-26 14:35 -31.84648 115.68974 2985 ft 207 kts 32°
2026-04-26 14:35 -31.83323 115.69582 2971 ft 206 kts
2026-04-26 14:35 -31.81894 115.69382 2977 ft 209 kts 350°
2026-04-26 14:35 -31.80474 115.69030 2978 ft 206 kts 351°
2026-04-26 14:36 -31.79135 115.68738 2979 ft 188 kts 352°
2026-04-26 14:36 -31.77873 115.68488 2979 ft 181 kts 353°
2026-04-26 14:36 -31.76644 115.68268 2979 ft 177 kts 353°
2026-04-26 14:36 -31.75452 115.67926 2977 ft 176 kts 346°
2026-04-26 14:37 -31.74282 115.67501 2979 ft 176 kts 346°
2026-04-26 14:37 -31.73134 115.67059 2980 ft 176 kts 345°
2026-04-26 14:37 -31.71969 115.66613 2980 ft 176 kts 345°
2026-04-26 14:37 -31.70807 115.66162 2978 ft 176 kts 345°
2026-04-26 14:38 -31.69647 115.65715 2976 ft 176 kts 345°
2026-04-26 14:38 -31.68484 115.65262 2981 ft 176 kts 345°
2026-04-26 14:38 -31.67321 115.64817 2978 ft 176 kts 345°
2026-04-26 14:38 -31.66159 115.64369 2977 ft 176 kts 345°
2026-04-26 14:39 -31.64972 115.64072 2988 ft 173 kts
2026-04-26 14:39 -31.63770 115.64119 2986 ft 174 kts 358°
2026-04-26 14:39 -31.62573 115.63871 2979 ft 175 kts 349°
2026-04-26 14:39 -31.61393 115.63525 2995 ft 175 kts 348°
2026-04-26 14:40 -31.60215 115.63182 2995 ft 175 kts 349°
2026-04-26 14:40 -31.59032 115.62843 2995 ft 175 kts 349°
2026-04-26 14:40 -31.57852 115.62506 2995 ft 175 kts 349°
2026-04-26 14:40 -31.56671 115.62168 2993 ft 175 kts 349°
2026-04-26 14:41 -31.55487 115.61832 2994 ft 175 kts 350°
2026-04-26 14:41 -31.54290 115.61786 3002 ft 172 kts 10°
2026-04-26 14:41 -31.53138 115.62228 3000 ft 176 kts 28°
2026-04-26 14:41 -31.52165 115.63118 2975 ft 183 kts 48°
2026-04-26 14:42 -31.51502 115.64406 2921 ft 186 kts 70°
2026-04-26 14:42 -31.51157 115.65859 2920 ft 185 kts 76°
2026-04-26 14:42 -31.50818 115.67310 2920 ft 185 kts 75°
2026-04-26 14:42 -31.50480 115.68760 2920 ft 184 kts 75°
2026-04-26 14:43 -31.50145 115.70216 2853 ft 188 kts 75°
2026-04-26 14:43 -31.49800 115.71730 2612 ft 196 kts 76°
2026-04-26 14:43 -31.49445 115.73288 2345 ft 199 kts 75°
2026-04-26 14:43 -31.49133 115.74635 2120 ft 131 kts 75°
2026-04-26 14:44 -31.48921 115.75516 1947 ft 100 kts 75°
2026-04-26 14:44 -31.48727 115.76331 1809 ft 109 kts 75°
2026-04-26 14:44 -31.48523 115.77216 1663 ft 115 kts 75°
2026-04-26 14:44 -31.48314 115.78126 1507 ft 116 kts 75°
2026-04-26 14:45 -31.48105 115.79043 1348 ft 117 kts 75°
2026-04-26 14:45 -31.47966 115.79651 1242 ft 117 kts 75°
2026-04-26 14:45 -31.47679 115.80915 1033 ft 127 kts 76°
2026-04-26 14:45 -31.47460 115.81893 868 ft 118 kts 76°
2026-04-26 14:46 -31.47255 115.82799 745 ft 115 kts 75°
2026-04-26 14:46 -31.47043 115.83714 590 ft 115 kts 76°
2026-04-26 14:46 -31.46843 115.84560 412 ft 101 kts 75°
2026-04-26 14:46 -31.46655 115.85354 279 ft 104 kts 75°
2026-04-26 14:47 -31.46505 115.86049 253 ft 71 kts 68°
2026-04-26 14:47 -31.46388 115.86500 249 ft 52 kts 76°
2026-04-26 14:47 -31.46496 115.86652 251 ft 27 kts 220°
2026-04-26 14:47 -31.46583 115.86384 251 ft 37 kts 246°